Weather History for Cape Romanzoff, AK

Change the Weather History Date:

Friday, December 6, 2013

  Actual Average Record
Temperature  
Mean Temperature 38 °F -  
Max Temperature 44 °F 20 °F 44 °F (2013)
Min Temperature 32 °F 9 °F -3 °F (2012)
Degree Days  
Heating Degree Days 28    
Moisture  
Dew Point 38 °F    
Average Humidity 99    
Maximum Humidity 100    
Minimum Humidity 87    
Precipitation  
Precipitation 0.57 in - - ()
Sea Level Pressure  
Sea Level Pressure 29.99 in    
Wind  
Wind Speed 18 mph (South)    
Max Wind Speed 39 mph    
Max Gust Speed 47 mph    
Visibility 3 miles    
Events Fog , Rain , Snow    
Averages and records for this station are not official NWS values.
T = Trace of Precipitation, MM = Missing Value Source: NWS Daily Summary

Daily Weather History Graph

Daily Weather History Graph

Search for Another Location

Airport:

Trip Planner

Search our weather history database for the weather conditions in past years. The results will help you decide how hot, cold, wet, or windy it might be!

Date:

Astronomy

Dec. 06, 2013 Rise Set
Actual Time 11:06 AM AKST 4:43 PM AKST
Civil Twilight 10:04 AM AKST 5:45 PM AKST
Nautical Twilight 9:04 AM AKST 6:45 PM AKST
Astronomical Twilight 8:10 AM AKST 7:39 PM AKST
Moon 1:25 PM AKST (12/6) 10:32 PM AKST (12/6)
Length of Visible Light 7h 40m
Length of Day
5h 36m
Waxing Crescent, 20% of the Moon is Illuminated
Dec 6
Waxing Crescent
Dec 9
First Quarter
Dec 17
Full
Dec 25
Last Quarter
Jan 1
New

Hourly Weather History & Observations

Time (AKST) Temp. Windchill Dew Point Humidity Pressure Visibility Wind Dir Wind Speed Gust Speed Precip Events Conditions
12:09 AM 33.8 °F 24.3 °F 33.8 °F 100% 30.06 in 2.0 mi South 13.8 mph - N/A Rain Light Rain Showers
12:24 AM 33.8 °F 25.3 °F 33.8 °F 100% 30.07 in 1.5 mi South 11.5 mph - N/A   Overcast
12:39 AM 33.8 °F 24.8 °F 33.8 °F 100% 30.07 in 0.5 mi South 12.7 mph - N/A Fog , Rain Light Rain Showers
12:54 AM 33.8 °F 25.3 °F 33.8 °F 100% 30.07 in 1.0 mi South 11.5 mph - N/A Rain Light Rain Showers
12:55 AM 32.9 °F 24.1 °F 33.6 °F 100% 30.07 in 1.0 mi South 11.5 mph - N/A Rain Light Rain Showers
1:09 AM 33.8 °F 25.8 °F 33.8 °F 100% 30.07 in 0.8 mi South 10.4 mph - N/A   Light Drizzle
1:24 AM 33.8 °F 26.4 °F 33.8 °F 100% 30.08 in 10.0 mi South 9.2 mph - N/A Rain Light Rain Showers
1:39 AM 33.8 °F 27.7 °F 33.8 °F 100% 30.08 in 10.0 mi South 6.9 mph - N/A   Overcast
1:54 AM 33.8 °F 29.6 °F 33.8 °F 100% 30.08 in 10.0 mi South 4.6 mph - N/A Rain Light Rain Showers
1:55 AM 33.4 °F 29.1 °F 32.9 °F 98% 30.08 in 10.0 mi SSW 4.6 mph - N/A Rain Light Rain Showers
2:09 AM 33.8 °F 26.4 °F 33.8 °F 100% 30.08 in 10.0 mi South 9.2 mph - N/A Rain Light Rain Showers
2:25 AM 33.8 °F 26.4 °F 33.8 °F 100% 30.07 in 2.0 mi South 9.2 mph - N/A Rain Light Rain
2:40 AM 33.8 °F 27.7 °F 33.8 °F 100% 30.07 in 1.5 mi SSW 6.9 mph - N/A Rain Light Rain
2:55 AM 32.9 °F - 33.6 °F 100% 30.06 in 1.0 mi Variable 2.3 mph - 0.02 in Rain Light Rain
3:10 AM - - - N/A% 30.05 in 0.5 mi NNE 3.5 mph - N/A Fog , Rain Light Rain
3:25 AM 33.8 °F 26.4 °F 33.8 °F 100% 30.04 in 1.5 mi NE 9.2 mph - N/A Rain , Snow Light Rain
3:40 AM 33.8 °F 23.9 °F 33.8 °F 100% 30.02 in 10.0 mi NE 15.0 mph - N/A Rain , Snow Light Rain
3:55 AM 34.5 °F 25.3 °F 34.0 °F 98% 30.03 in 10.0 mi NE 13.8 mph 21.9 mph 0.02 in Rain Light Rain
4:25 AM 35.6 °F - 33.8 °F 93% 30.02 in 10.0 mi NNE 2.3 mph - N/A Rain Light Rain
4:55 AM 36.0 °F 28.0 °F 34.9 °F 96% 30.00 in 10.0 mi NE 11.5 mph - 0.04 in Rain Rain
5:10 AM 37.4 °F 29.8 °F 33.8 °F 87% 29.99 in 10.0 mi NNE 11.5 mph 18.4 mph N/A Rain , Snow Light Rain
5:40 AM 37.4 °F 29.8 °F 35.6 °F 93% 29.98 in 5.0 mi ENE 11.5 mph - N/A Rain Light Rain
5:55 AM 37.6 °F 29.6 °F 36.7 °F 97% 29.96 in 3.0 mi ENE 12.7 mph 16.1 mph 0.07 in Rain Rain
6:55 AM 40.1 °F 31.6 °F 37.4 °F 90% 29.92 in 7.0 mi ENE 16.1 mph 21.9 mph 0.05 in Rain Light Rain
7:55 AM 43.5 °F 37.5 °F 41.0 °F 91% 29.91 in 3.0 mi East 11.5 mph 20.7 mph 0.03 in Rain Light Rain
8:10 AM 42.8 °F 35.8 °F 41.0 °F 93% 29.91 in 4.0 mi ESE 13.8 mph 24.2 mph N/A Rain Light Rain
8:55 AM 41.2 °F 33.7 °F 39.6 °F 94% 29.90 in 8.0 mi SE 13.8 mph 20.7 mph 0.06 in Rain Light Rain
9:55 AM 41.4 °F 31.6 °F 40.3 °F 96% 29.88 in 4.0 mi South 23.0 mph 39.1 mph 0.03 in Rain Light Rain
10:40 AM 41.0 °F 30.2 °F 39.2 °F 93% 29.89 in 3.0 mi South 27.6 mph 36.8 mph N/A Rain Light Rain
10:55 AM 39.7 °F 28.1 °F 39.4 °F 99% 29.89 in 2.5 mi South 29.9 mph 36.8 mph 0.05 in Rain Light Rain
11:10 AM 39.2 °F 27.4 °F 39.2 °F 100% 29.90 in 1.0 mi South 29.9 mph 38.0 mph N/A Rain Light Rain
11:25 AM 39.2 °F 27.8 °F 39.2 °F 100% 29.90 in 0.8 mi South 27.6 mph 41.4 mph N/A Rain Light Rain
11:55 AM 38.8 °F 27.1 °F 39.0 °F 100% 29.91 in 0.5 mi South 28.8 mph 41.4 mph 0.00 in Rain Light Rain
12:10 PM 39.2 °F 26.8 °F 39.2 °F 100% 29.92 in 0.5 mi South 33.4 mph 42.6 mph N/A Fog , Rain Light Rain
12:40 PM 39.2 °F 27.2 °F 39.2 °F 100% 29.93 in 1.5 mi South 31.1 mph 40.3 mph N/A Fog , Rain Light Rain
12:55 PM 38.8 °F 27.3 °F 38.8 °F 100% 29.94 in 0.5 mi South 27.6 mph 41.4 mph 0.02 in Fog , Rain Light Rain
1:10 PM 39.2 °F 27.4 °F 39.2 °F 100% 29.94 in 0.8 mi South 29.9 mph 38.0 mph N/A Fog , Rain Light Rain
1:25 PM 39.2 °F 27.8 °F 39.2 °F 100% 29.94 in 1.0 mi South 27.6 mph 41.4 mph N/A Rain Light Rain
1:55 PM 38.8 °F 27.1 °F 39.0 °F 100% 29.95 in 1.0 mi South 28.8 mph 40.3 mph 0.00 in Rain Light Rain
2:10 PM 39.2 °F 27.2 °F 39.2 °F 100% 29.95 in 0.8 mi South 31.1 mph 41.4 mph N/A Rain Light Rain
2:40 PM 39.2 °F 27.8 °F 39.2 °F 100% 29.96 in 1.0 mi South 27.6 mph 39.1 mph N/A Rain Light Rain
2:55 PM 39.2 °F 27.2 °F 39.7 °F 100% 29.95 in 1.0 mi South 31.1 mph 42.6 mph 0.00 in Rain Light Rain
3:10 PM 39.2 °F 27.6 °F 39.2 °F 100% 29.96 in 1.2 mi South 28.8 mph 39.1 mph N/A Rain Light Rain
3:40 PM 39.2 °F 27.6 °F 39.2 °F 100% 29.96 in 2.5 mi South 28.8 mph 39.1 mph N/A Rain Light Rain
3:55 PM 39.2 °F 27.2 °F 39.6 °F 100% 29.96 in 2.0 mi South 31.1 mph 40.3 mph 0.00 in Rain Light Rain
4:10 PM 39.2 °F 27.8 °F 39.2 °F 100% 29.96 in 1.2 mi South 27.6 mph 36.8 mph N/A Rain Light Rain
4:25 PM 39.2 °F 26.6 °F 39.2 °F 100% 29.96 in 2.0 mi South 34.5 mph 44.9 mph N/A Rain Light Rain
4:40 PM 39.2 °F 26.0 °F 39.2 °F 100% 29.96 in 4.0 mi South 39.1 mph 47.2 mph N/A   Overcast
4:55 PM 39.0 °F 26.1 °F 39.4 °F 100% 29.96 in 6.0 mi South 36.8 mph 43.7 mph N/A   Overcast
5:55 PM 38.7 °F 27.1 °F 38.7 °F 100% 29.98 in 2.0 mi South 27.6 mph 35.7 mph N/A   Overcast
6:10 PM 39.2 °F 27.2 °F 39.2 °F 100% 29.97 in 2.0 mi South 31.1 mph 40.3 mph N/A Rain Light Rain Showers
6:25 PM 39.2 °F 27.2 °F 39.2 °F 100% 29.97 in 1.5 mi South 31.1 mph 40.3 mph N/A Rain Light Rain Showers
6:40 PM 39.2 °F 27.4 °F 39.2 °F 100% 29.99 in 1.2 mi South 29.9 mph 36.8 mph N/A Rain Light Rain Showers
6:55 PM 39.2 °F 27.4 °F 39.2 °F 100% 29.98 in 1.0 mi South 29.9 mph 39.1 mph N/A Rain Light Rain Showers
7:10 PM 39.2 °F 27.2 °F 39.2 °F 100% 30.00 in 1.0 mi South 31.1 mph 36.8 mph N/A Rain Light Rain
7:25 PM 39.2 °F 27.0 °F 39.2 °F 100% 30.00 in 1.2 mi South 32.2 mph 40.3 mph N/A Rain Light Rain
7:40 PM 39.2 °F 27.0 °F 39.2 °F 100% 30.00 in 1.0 mi South 32.2 mph 42.6 mph N/A Rain Light Rain
7:55 PM 39.2 °F 27.2 °F 39.2 °F 100% 30.01 in 1.0 mi South 31.1 mph 41.4 mph 0.06 in Rain Light Rain
8:25 PM 39.2 °F 27.4 °F 39.2 °F 100% 30.00 in 1.2 mi South 29.9 mph 36.8 mph N/A Rain Light Rain
8:55 PM 39.4 °F 27.5 °F 39.6 °F 100% 30.01 in 1.0 mi South 31.1 mph 40.3 mph 0.04 in Rain Light Rain
9:25 PM 39.2 °F 28.0 °F 39.2 °F 100% 30.01 in 1.8 mi South 26.5 mph 33.4 mph N/A Rain Light Rain
9:40 PM 39.2 °F 28.0 °F 39.2 °F 100% 30.01 in 2.5 mi South 26.5 mph 35.7 mph N/A Rain Light Rain
9:55 PM 38.8 °F 27.6 °F 38.7 °F 99% 30.02 in 2.0 mi South 26.5 mph 40.3 mph 0.02 in Rain Light Rain
10:10 PM 39.2 °F 27.8 °F 39.2 °F 100% 30.01 in 2.0 mi South 27.6 mph 33.4 mph N/A Rain Light Rain
10:25 PM 39.2 °F 28.0 °F 39.2 °F 100% 30.03 in 1.5 mi South 26.5 mph 34.5 mph N/A Rain Light Rain
10:40 PM 39.2 °F 27.2 °F 39.2 °F 100% 30.02 in 1.2 mi South 31.1 mph 39.1 mph N/A Rain Light Rain
10:55 PM 38.7 °F 27.1 °F 38.7 °F 100% 30.03 in 1.0 mi South 27.6 mph 36.8 mph 0.04 in Rain Light Rain
11:10 PM 39.2 °F 28.3 °F 39.2 °F 100% 30.04 in 1.8 mi South 25.3 mph - N/A Rain Light Rain
11:25 PM 39.2 °F 28.3 °F 39.2 °F 100% 30.04 in 2.5 mi South 25.3 mph 31.1 mph N/A Rain Light Rain
11:40 PM 39.2 °F 28.5 °F 39.2 °F 100% 30.03 in 2.5 mi South 24.2 mph 32.2 mph N/A Rain Light Rain
11:55 PM 39.2 °F 27.4 °F 39.4 °F 100% 30.04 in 2.5 mi SSW 29.9 mph 35.7 mph 0.02 in Rain Light Rain